Regional Weather Roundup
Issued by NWS Huntsville, AL

Home | Current Version | Previous Version | Text Only | Print | Product List | Glossary On
Versions: 1 2 3 4 5 6 7 8 9 10 11 12 13 14 15 16 17 18 19 20 21 22 23 24 25 26 27
000
ASUS44 KHUN 252310
RWRHUN

WEATHER ROUNDUP FOR THE TENNESSEE VALLEY
NATIONAL WEATHER SERVICE HUNTSVILLE AL
600 PM CDT TUE APR 25 2017

ALZ001>004-260000-
NORTHWEST ALABAMA

CITY           SKY/WX    TMP DP  RH WIND       PRES   REMARKS
COURTLAND HCN    N/A     79 N/A N/A S5          N/A
RUSSELLVILLE     N/A     77 N/A N/A MISG        N/A
SHOALS AIRPORT SUNNY     79  54  41 S7        29.70F
SHOALS TVA RES   N/A     77 N/A N/A MISG        N/A
$$

ALZ005>007-016-260000-
NORTH CENTRAL ALABAMA

CITY           SKY/WX    TMP DP  RH WIND       PRES   REMARKS
CULLMAN AG STN   N/A     75 N/A N/A W6          N/A
DECATUR AP     SUNNY     76  61  59 CALM      29.71F
HUNTSVILLE AP  SUNNY     78  59  51 S8        29.71F
MERIDIANVILLE  SUNNY     73  52  46 SW7       29.73F
REDSTONE ARSN  SUNNY     76  59  54 SW3       29.71F
VINEMONT AP    FAIR      76  55  47 S7        29.76S
$$

ALZ008>010-260000-
NORTHEAST ALABAMA

CITY           SKY/WX    TMP DP  RH WIND       PRES   REMARKS
ALBERTVILLE    SUNNY     75  63  64 SW5       29.74S
FORT PAYNE     SUNNY     73  50  43 W7        29.74R
SCOTTSBORO AP  SUNNY     75  50  41 SW6       29.73S
SCOTTSBORO HCN   N/A     77 N/A N/A MISG        N/A
VALLEY HEAD      N/A     73 N/A N/A MISG        N/A
$$

TNZ076-096-097-260000-
SOUTHEASTERN MIDDLE TENNESSEE

CITY           SKY/WX    TMP DP  RH WIND       PRES   REMARKS
TULLAHOMA        N/A     73  52  46 SW5       29.74S
WINCHESTER     SUNNY     75  54  46 W3        29.73S
$$

...SURROUNDING SITES...

CITY           SKY/WX    TMP DP  RH WIND       PRES   REMARKS
ATLANTA        MOSUNNY   76  55  48 W13       29.74R
ANNISTON       SUNNY     77  57  50 SW5       29.73F
BIRMINGHAM     SUNNY     80  53  39 SW8       29.75F
CHATTANOOGA    MOSUNNY   78  54  43 W7        29.72R
CORINTH        FAIR      79  52  38 S10       29.66S
DALTON         SUNNY     73  55  53 CALM      29.73S
GADSDEN        SUNNY     78  58  49 SW8       29.73S
GOLDEN TRNGL   SUNNY     81  54  39 S12       29.65F
HALEYVILLE     FAIR      77  57  50 S6        29.74S
JACKSON TN     SUNNY     80  53  39 S7        29.61F
MEMPHIS        MOSUNNY   80  53  39 S14G23    29.60F
NASHVILLE      SUNNY     76  56  49 S8        29.70F
OXFORD MS      FAIR      79  50  36 S10G17    29.67S
ROME           SUNNY     76  57  51 S5        29.72S
SAVANNAH       SUNNY     77  55  47 S7G14     29.66F
TUPELO         SUNNY     79  52  38 SE8       29.67F
TUSCALOOSA     SUNNY     78  56  46 S9        29.72S
$$

...GULF COAST WEATHER...

CITY           SKY/WX    TMP DP  RH WIND       PRES   REMARKS
GULFPORT       SUNNY     75  57  53 S9        29.76F
PASCAGOULA     SUNNY     74  56  53 SW7       29.77F
MOBILE         MOSUNNY   75  54  47 SW14G22   29.77F
GULF SHORES    CLEAR     73  59  60 SW14      29.78F
PENSACOLA      MOSUNNY   74  56  53 SW9       29.77S
DESTIN         SUNNY     77  63  61 SW9       29.78S
PANAMA CITY    MOSUNNY   74  60  59 SW12      29.79S
APPALACHICOLA  SUNNY     74  59  59 SW12      29.79S
$$





USA.gov is the U.S. government's official web portal to all federal, state and local government web resources and services.